• In Portugal
  • List of Countries
  • For 7 days
  • Water Temperature
  • Satellite Maps
  • Weather Map
  • Weather Widgets
  • user-avatar
    Login

    Hourly Weather San Luis

    Today, 21 February, Wednesday

    Time Temperature Precipitation Wind Pressure Humidity
    00:00 +20°C° 0 mm 5 mps 700 mmHg 33%
    01:00 +20°C° 0 mm 4 mps 700 mmHg 33%
    02:00 +20°C° 0 mm 4 mps 700 mmHg 33%
    03:00 +19°C° 0 mm 3 mps 700 mmHg 35%
    04:00 +19°C° 0 mm 3 mps 700 mmHg 36%
    05:00 +19°C° 0 mm 3 mps 700 mmHg 37%
    06:00 +21°C° 0 mm 3 mps 700 mmHg 35%
    07:00 +24°C° 0 mm 3 mps 701 mmHg 33%
    08:00 +25°C° 0 mm 4 mps 701 mmHg 30%
    09:00 +27°C° 0 mm 4 mps 702 mmHg 28%
    10:00 +29°C° 0 mm 4 mps 702 mmHg 26%
    11:00 +30°C° 0 mm 4 mps 702 mmHg 23%
    12:00 +32°C° 0 mm 4 mps 701 mmHg 22%
    13:00 +33°C° 0 mm 4 mps 700 mmHg 21%
    14:00 +34°C° 0 mm 4 mps 700 mmHg 20%
    15:00 +34°C° 0 mm 4 mps 699 mmHg 19%
    16:00 +34°C° 0 mm 4 mps 698 mmHg 19%
    17:00 +34°C° 0 mm 4 mps 698 mmHg 19%
    18:00 +32°C° 0 mm 4 mps 698 mmHg 22%
    19:00 +29°C° 0 mm 3 mps 698 mmHg 26%
    20:00 +26°C° 0 mm 3 mps 698 mmHg 29%
    21:00 +26°C° 0 mm 3 mps 698 mmHg 29%
    22:00 +25°C° 0 mm 4 mps 698 mmHg 30%
    23:00 +25°C° 0 mm 4 mps 699 mmHg 30%

    Tomorrow, 22 February, Thursday

    Time Temperature Precipitation Wind Pressure Humidity
    00:00 +23°C° 0 mm 4 mps 699 mmHg 30%
    01:00 +23°C° 0 mm 4 mps 698 mmHg 30%
    02:00 +23°C° 0 mm 5 mps 698 mmHg 30%
    03:00 +23°C° 0 mm 5 mps 698 mmHg 30%
    04:00 +23°C° 0 mm 5 mps 698 mmHg 30%
    05:00 +22°C° 0 mm 6 mps 698 mmHg 31%
    06:00 +24°C° 0 mm 6 mps 699 mmHg 29%
    07:00 +26°C° 0 mm 7 mps 700 mmHg 27%
    08:00 +27°C° 0 mm 8 mps 700 mmHg 25%
    09:00 +29°C° 0 mm 8 mps 701 mmHg 23%
    10:00 +32°C° 0 mm 8 mps 701 mmHg 21%
    11:00 +33°C° 0 mm 8 mps 701 mmHg 19%
    12:00 +34°C° 0 mm 7 mps 701 mmHg 18%
    13:00 +35°C° 0 mm 7 mps 700 mmHg 17%
    14:00 +36°C° 0 mm 6 mps 700 mmHg 16%
    15:00 +35°C° 0 mm 6 mps 699 mmHg 17%
    16:00 +35°C° 0 mm 6 mps 698 mmHg 17%
    17:00 +35°C° 0 mm 6 mps 698 mmHg 17%
    18:00 +33°C° 0 mm 5 mps 697 mmHg 20%
    19:00 +29°C° 0 mm 5 mps 697 mmHg 22%
    20:00 +27°C° 0 mm 4 mps 697 mmHg 25%
    21:00 +27°C° 0 mm 4 mps 697 mmHg 26%
    22:00 +26°C° 0 mm 4 mps 697 mmHg 26%
    23:00 +26°C° 0 mm 4 mps 698 mmHg 26%

    Day after tomorrow, 23 February, Friday

    Time Temperature Precipitation Wind Pressure Humidity
    00:00 +25°C° 0 mm 5 mps 697 mmHg 27%
    01:00 +25°C° 0 mm 5 mps 697 mmHg 27%
    02:00 +24°C° 0 mm 6 mps 697 mmHg 27%
    03:00 +25°C° 0 mm 5 mps 697 mmHg 27%
    04:00 +25°C° 0 mm 5 mps 697 mmHg 26%
    05:00 +23°C° 0 mm 5 mps 697 mmHg 26%
    06:00 +25°C° 0 mm 5 mps 698 mmHg 26%
    07:00 +26°C° 0 mm 6 mps 699 mmHg 27%
    08:00 +26°C° 0 mm 6 mps 700 mmHg 27%
    09:00 +28°C° 0 mm 6 mps 700 mmHg 26%
    10:00 +29°C° 0 mm 6 mps 700 mmHg 24%
    11:00 +30°C° 0 mm 6 mps 701 mmHg 23%
    12:00 +32°C° 0 mm 5 mps 701 mmHg 22%
    13:00 +33°C° 0 mm 5 mps 700 mmHg 21%
    14:00 +33°C° 0 mm 4 mps 700 mmHg 21%
    15:00 +33°C° 0 mm 4 mps 699 mmHg 22%
    16:00 +32°C° 0 mm 4 mps 699 mmHg 24%
    17:00 +31°C° 0 mm 3 mps 699 mmHg 25%
    18:00 +30°C° 0 mm 4 mps 699 mmHg 28%
    19:00 +28°C° 0 mm 5 mps 699 mmHg 31%
    20:00 +27°C° 0 mm 5 mps 700 mmHg 34%
    21:00 +25°C° 0.1 mm 5 mps 700 mmHg 39%
    22:00 +23°C° 0.1 mm 5 mps 700 mmHg 43%
    23:00 +22°C° 0.1 mm 5 mps 701 mmHg 47%

    24 February, Saturday

    Time Temperature Precipitation Wind Pressure Humidity
    00:00 +21°C° 0.2 mm 5 mps 701 mmHg 50%
    01:00 +21°C° 0.2 mm 4 mps 700 mmHg 52%
    02:00 +20°C° 0.2 mm 4 mps 700 mmHg 54%
    03:00 +19°C° 0.1 mm 3 mps 700 mmHg 58%
    04:00 +19°C° 0.1 mm 3 mps 700 mmHg 61%
    05:00 +18°C° 0.1 mm 3 mps 700 mmHg 65%
    06:00 +18°C° 0.1 mm 3 mps 700 mmHg 63%
    07:00 +19°C° 0.1 mm 3 mps 701 mmHg 62%
    08:00 +20°C° 0.1 mm 4 mps 701 mmHg 60%
    09:00 +21°C° 0.1 mm 4 mps 701 mmHg 54%
    10:00 +23°C° 0.1 mm 4 mps 701 mmHg 49%
    11:00 +26°C° 0.1 mm 4 mps 702 mmHg 43%
    12:00 +27°C° 0 mm 3 mps 701 mmHg 40%
    13:00 +28°C° 0 mm 3 mps 701 mmHg 36%
    14:00 +29°C° 0 mm 3 mps 700 mmHg 32%
    15:00 +29°C° 0.2 mm 2 mps 700 mmHg 34%
    16:00 +29°C° 0.2 mm 2 mps 699 mmHg 36%
    17:00 +29°C° 0.2 mm 2 mps 699 mmHg 38%
    18:00 +27°C° 0.9 mm 2 mps 699 mmHg 45%
    19:00 +25°C° 0.9 mm 3 mps 699 mmHg 52%
    20:00 +22°C° 0.9 mm 3 mps 699 mmHg 59%
    21:00 +21°C° 0.8 mm 3 mps 699 mmHg 64%
    22:00 +20°C° 0.8 mm 2 mps 699 mmHg 68%
    23:00 +19°C° 0.8 mm 2 mps 700 mmHg 72%

    25 February, Sunday

    Time Temperature Precipitation Wind Pressure Humidity
    00:00 +19°C° 0.3 mm 2 mps 699 mmHg 72%
    01:00 +19°C° 0.3 mm 2 mps 699 mmHg 73%
    02:00 +19°C° 0.3 mm 2 mps 699 mmHg 74%
    03:00 +20°C° 0.2 mm 1 mps 699 mmHg 74%
    04:00 +19°C° 0.2 mm 1 mps 699 mmHg 75%
    05:00 +19°C° 0.2 mm 1 mps 699 mmHg 75%
    06:00 +20°C° 0.1 mm 1 mps 700 mmHg 70%
    07:00 +21°C° 0.1 mm 2 mps 700 mmHg 64%
    08:00 +23°C° 0.1 mm 2 mps 701 mmHg 58%
    09:00 +25°C° 0.3 mm 2 mps 701 mmHg 52%
    10:00 +26°C° 0.3 mm 2 mps 701 mmHg 47%
    11:00 +28°C° 0.3 mm 2 mps 701 mmHg 41%
    12:00 +29°C° 0.1 mm 2 mps 700 mmHg 38%
    13:00 +30°C° 0.1 mm 2 mps 700 mmHg 36%
    14:00 +31°C° 0.1 mm 2 mps 700 mmHg 33%
    15:00 +31°C° 0 mm 2 mps 699 mmHg 33%
    16:00 +31°C° 0 mm 2 mps 699 mmHg 32%
    17:00 +31°C° 0 mm 1 mps 698 mmHg 32%
    18:00 +29°C° 0.4 mm 2 mps 698 mmHg 40%
    19:00 +26°C° 0.4 mm 2 mps 698 mmHg 48%
    20:00 +24°C° 0.4 mm 2 mps 698 mmHg 56%
    21:00 +24°C° 0.2 mm 3 mps 698 mmHg 57%
    22:00 +22°C° 0.2 mm 3 mps 698 mmHg 58%
    23:00 +22°C° 0.2 mm 3 mps 699 mmHg 59%

    26 February, Monday

    Time Temperature Precipitation Wind Pressure Humidity
    00:00 +22°C° 0 mm 3 mps 698 mmHg 59%
    01:00 +21°C° 0 mm 3 mps 698 mmHg 59%
    02:00 +21°C° 0 mm 3 mps 698 mmHg 59%
    03:00 +21°C° 0 mm 3 mps 697 mmHg 59%
    04:00 +21°C° 0 mm 3 mps 697 mmHg 59%
    05:00 +21°C° 0 mm 3 mps 697 mmHg 60%
    06:00 +22°C° 0 mm 3 mps 698 mmHg 56%
    07:00 +24°C° 0 mm 3 mps 699 mmHg 52%
    08:00 +26°C° 0 mm 3 mps 699 mmHg 49%
    09:00 +27°C° 0 mm 2 mps 699 mmHg 44%
    10:00 +29°C° 0 mm 2 mps 699 mmHg 39%
    11:00 +30°C° 0 mm 1 mps 699 mmHg 34%
    12:00 +31°C° 0 mm 1 mps 699 mmHg 32%
    13:00 +32°C° 0 mm 1 mps 698 mmHg 29%
    14:00 +33°C° 0 mm 1 mps 697 mmHg 27%
    15:00 +33°C° 0 mm 1 mps 697 mmHg 27%
    16:00 +33°C° 0 mm 1 mps 696 mmHg 27%
    17:00 +33°C° 0 mm 1 mps 696 mmHg 27%
    18:00 +31°C° 0 mm 2 mps 696 mmHg 30%
    19:00 +29°C° 0 mm 2 mps 696 mmHg 34%
    20:00 +27°C° 0 mm 3 mps 696 mmHg 38%
    21:00 +26°C° 0 mm 3 mps 696 mmHg 39%
    22:00 +26°C° 0 mm 3 mps 696 mmHg 41%
    23:00 +25°C° 0 mm 4 mps 696 mmHg 43%
    Show more